Weather History for Northolt, United Kingdom

Change the Weather History Date:

Sunday, September 22, 2013

  Actual Average Record
Temperature  
Mean Temperature 61 °F -  
Max Temperature 67 °F 60 °F 73 °F (2010)
Min Temperature 55 °F 47 °F 40 °F (2012)
Degree Days  
Heating Degree Days 4    
Growing Degree Days 11 (Base 50)    
Moisture  
Dew Point 58 °F    
Average Humidity 87    
Maximum Humidity 94    
Minimum Humidity 70    
Precipitation  
Precipitation 0.00 in - - ()
Sea Level Pressure  
Sea Level Pressure 30.34 in    
Wind  
Wind Speed 4 mph ()    
Max Wind Speed 8 mph    
Max Gust Speed -    
Visibility 6.8 miles    
Events Rain    
Averages and records for this station are not official NWS values.
T = Trace of Precipitation, MM = Missing Value Source: Averaged Metar Reports

Daily Weather History Graph

Daily Weather History Graph

Search for Another Location

Airport:

Trip Planner

Search our weather history database for the weather conditions in past years. The results will help you decide how hot, cold, wet, or windy it might be!

Date:

Astronomy

Sep. 22, 2013 Rise Set
Actual Time 6:47 AM BST 6:59 PM BST
Civil Twilight 6:14 AM BST 7:33 PM BST
Nautical Twilight 5:34 AM BST 8:12 PM BST
Astronomical Twilight 4:53 AM BST 8:53 PM BST
Moon 8:11 PM BST (9/22) 10:19 AM BST (9/22)
Length of Visible Light 13h 18m
Length of Day
12h 11m
Waning Gibbous, 90% of the Moon is Illuminated
Sep 22
Waning Gibbous
Sep 27
Last Quarter
Oct 5
New
Oct 12
First Quarter
Oct 19
Full

Hourly Weather History & Observations

Time (BST) Temp. Dew Point Humidity Pressure Visibility Wind Dir Wind Speed Gust Speed Precip Events Conditions
12:50 AM 61 °F 59 °F 92% 30.31 in 9 mi West 4.6 mph - -   Scattered Clouds
12:50 AM 60.8 °F 59.0 °F 94% 30.30 in 6.2 mi West 4.6 mph - N/A   Partly Cloudy
1:50 AM 59.0 °F 57.2 °F 94% 30.30 in 4.3 mi WSW 3.5 mph - N/A   Mostly Cloudy
2:50 AM 60.8 °F 59.0 °F 94% 30.30 in 6.2 mi West 8.1 mph - N/A   Overcast
3:50 AM 61 °F 60 °F 93% 30.33 in 22 mi West 6.9 mph - -   Overcast
3:50 AM 60.8 °F 59.0 °F 94% 30.30 in 6.2 mi West 6.9 mph - N/A   Overcast
4:50 AM 60.8 °F 59.0 °F 94% 30.33 in 6.2 mi WNW 5.8 mph - N/A   Overcast
5:50 AM 62.6 °F 59.0 °F 88% 30.33 in 6.2 mi West 4.6 mph - N/A   Overcast
6:50 AM 62 °F 59 °F 88% 30.35 in 12 mi West 5.8 mph - -   Overcast
6:50 AM 60.8 °F 59.0 °F 94% 30.33 in 6.2 mi West 5.8 mph - N/A   Overcast
7:50 AM 60.8 °F 59.0 °F 94% 30.36 in 6.2 mi NW 3.5 mph - N/A   Overcast
8:50 AM 62.6 °F 60.8 °F 94% 30.36 in 3.7 mi West 3.5 mph - N/A   Light Drizzle
9:50 AM 62 °F 60 °F 89% 30.38 in 9 mi WNW 4.6 mph - - Rain Light Drizzle
9:50 AM 62.6 °F 59.0 °F 88% 30.36 in 6.2 mi WNW 4.6 mph - N/A   Light Drizzle
10:50 AM 62.6 °F 59.0 °F 88% 30.36 in 6.2 mi WNW 3.5 mph - N/A   Overcast
11:50 AM 62.6 °F 59.0 °F 88% 30.36 in 6.2 mi NW 2.3 mph - N/A   Overcast
12:50 PM 65 °F 59 °F 76% 30.38 in 25 mi NNW 1.2 mph - -   Partly Cloudy
12:50 PM 64.4 °F 59.0 °F 83% 30.36 in 6.2 mi NNW 1.2 mph - N/A   Overcast
1:50 PM 66.2 °F 59.0 °F 78% 30.36 in 6.2 mi SW 4.6 mph - N/A   Overcast
2:50 PM 68.0 °F 59.0 °F 73% 30.36 in 6.2 mi WSW 6.9 mph - N/A   Overcast
3:50 PM 67 °F 59 °F 70% 30.36 in 25 mi SW 8.1 mph - -   Mostly Cloudy
3:50 PM 66.2 °F 59.0 °F 78% 30.36 in 6.2 mi SW 8.1 mph - N/A   Mostly Cloudy
4:50 PM 66.2 °F 59.0 °F 78% 30.33 in 6.2 mi SSW 5.8 mph - N/A   Mostly Cloudy
5:50 PM 68.0 °F 59.0 °F 73% 30.33 in 6.2 mi South 3.5 mph - N/A   Mostly Cloudy
6:50 PM 65 °F 59 °F 74% 30.35 in 22 mi South 4.6 mph - -   Mostly Cloudy
6:50 PM 66.2 °F 59.0 °F 78% 30.33 in 6.2 mi South 4.6 mph - N/A   Mostly Cloudy
7:50 PM 62.6 °F 59.0 °F 88% 30.33 in 6.2 mi South 1.2 mph - N/A   Scattered Clouds
8:50 PM 60.8 °F 57.2 °F 88% 30.33 in 6.2 mi Calm Calm - N/A   Partly Cloudy
9:50 PM 58 °F 56 °F 90% 30.35 in 16 mi ESE 1.2 mph - -  
9:50 PM 57.2 °F 55.4 °F 94% 30.33 in 6.2 mi ESE 1.2 mph - N/A   Unknown
10:50 PM 55.4 °F 53.6 °F 94% 30.33 in 6.2 mi SE 1.2 mph - N/A   Unknown
11:50 PM 55.4 °F 53.6 °F 94% 30.33 in 6.2 mi ENE 1.2 mph - N/A   Unknown